This is the latest recevied weather packets stored in our database for station/object KD8NVS-13. If no packets are shown the sender has not sent any weather packets the latest 10 day(s).
| Time | Temp. | Humidity | Pressure | Rain* | Wind** | Luminosity | Snow |
|---|---|---|---|---|---|---|---|
| 1778205066 | 7.78° C | 73% | 1004.2 hPa | 0 mm | - | 0 W/m² | - |
| 1778204762 | 8.33° C | 72% | 1004.2 hPa | 0 mm | - | 0 W/m² | - |
| 1778204458 | 8.33° C | 70% | 1004.2 hPa | 0 mm | - | 0 W/m² | - |
| 1778204154 | 8.33° C | 73% | 1004.2 hPa | 0 mm | - | 0 W/m² | - |
| 1778203852 | 8.33° C | 70% | 1004.2 hPa | 0 mm | - | 0 W/m² | - |
| 1778203549 | 8.89° C | 69% | 1004.2 hPa | 0 mm | - | 0 W/m² | - |
| 1778203246 | 8.89° C | 68% | 1004.2 hPa | 0 mm | - | 0 W/m² | - |
| 1778202944 | 8.89° C | 66% | 1004.2 hPa | 0 mm | - | 0 W/m² | - |
| 1778202642 | 9.44° C | 65% | 1004.2 hPa | 0 mm | - | 0 W/m² | - |
| 1778202338 | 9.44° C | 66% | 1003.8 hPa | 0 mm | - | 0 W/m² | - |
| 1778202036 | 10° C | 65% | 1003.8 hPa | 0 mm | - | 0 W/m² | - |
| 1778201732 | 10.56° C | 63% | 1003.5 hPa | 0 mm | - | 0 W/m² | - |
| 1778201429 | 11.11° C | 59% | 1003.8 hPa | 0 mm | - | 0 W/m² | - |
| 1778201125 | 11.67° C | 52% | 1003.8 hPa | 0 mm | - | 1 W/m² | - |
| 1778200822 | 12.22° C | 48% | 1003.8 hPa | 0 mm | - | 1 W/m² | - |
| 1778200518 | 12.78° C | 48% | 1003.5 hPa | 0 mm | - | 2 W/m² | - |
| 1778200216 | 12.78° C | 46% | 1003.5 hPa | 0 mm | - | 3 W/m² | - |
| 1778199912 | 13.33° C | 45% | 1003.5 hPa | 0 mm | - | 4 W/m² | - |
| 1778199609 | 13.89° C | 43% | 1003.5 hPa | 0 mm | - | 8 W/m² | - |
| 1778199305 | 13.89° C | 42% | 1003.5 hPa | 0 mm | - | 11 W/m² | - |
| 1778199002 | 14.44° C | 41% | 1003.2 hPa | 0 mm | - | 16 W/m² | - |
| 1778198697 | 14.44° C | 40% | 1003.5 hPa | 0 mm | - | 21 W/m² | - |
| 1778198394 | 14.44° C | 39% | 1003.2 hPa | 0 mm | - | 25 W/m² | - |
| 1778198091 | 14.44° C | 39% | 1003.5 hPa | 0 mm | - | 29 W/m² | - |
| 1778197789 | 14.44° C | 39% | 1003.5 hPa | 0 mm | - | 33 W/m² | - |
* Rain latest hour (hover to see other rain measurements)
** Current wind speed in m/s (hover to see current wind gust speed)